Weather History for Air Force Academy, CO

Change the Weather History Date:

Tuesday, April 23, 2013

  Actual Average Record
Temperature  
Mean Temperature 22 °F -  
Max Temperature 27 °F 54 °F 76 °F (2012)
Min Temperature 16 °F 31 °F 16 °F (2013)
Degree Days  
Heating Degree Days 44    
Moisture  
Dew Point 16 °F    
Average Humidity 81    
Maximum Humidity 90    
Minimum Humidity 63    
Precipitation  
Precipitation 0.01 in - - ()
Sea Level Pressure  
Sea Level Pressure 30.16 in    
Wind  
Wind Speed 7 mph (North)    
Max Wind Speed 12 mph    
Max Gust Speed -    
Visibility 6 miles    
Events Snow    
Averages and records for this station are not official NWS values.
T = Trace of Precipitation, MM = Missing Value Source: NWS Daily Summary

Daily Weather History Graph

Daily Weather History Graph

Search for Another Location

Airport:

Trip Planner

Search our weather history database for the weather conditions in past years. The results will help you decide how hot, cold, wet, or windy it might be!

Date:

Astronomy

Apr. 23, 2013 Rise Set
Actual Time 6:11 AM MDT 7:44 PM MDT
Civil Twilight 5:42 AM MDT 8:12 PM MDT
Nautical Twilight 5:09 AM MDT 8:46 PM MDT
Astronomical Twilight 4:33 AM MDT 9:22 PM MDT
Moon 5:43 PM MDT 4:39 AM MDT
Length of Visible Light 14h 29m
Length of Day
13h 33m
Waxing Gibbous, 94% of the Moon is Illuminated
Apr 23
Waxing Gibbous
Apr 25
Full
May 2
Last Quarter
May 9
New
May 17
First Quarter

Hourly Weather History & Observations

Time (MDT) Temp. Windchill Dew Point Humidity Pressure Visibility Wind Dir Wind Speed Gust Speed Precip Events Conditions
12:38 AM 21.2 °F 9.5 °F 15.8 °F 80% 30.18 in 8.0 mi North 11.5 mph - N/A Snow Light Snow
12:48 AM 21.2 °F 11.7 °F 15.8 °F 80% 30.17 in 4.0 mi North 8.1 mph - N/A Snow Light Snow
12:53 AM 21.2 °F 10.1 °F 15.8 °F 80% 30.17 in 4.0 mi North 10.4 mph - N/A Snow Light Snow
12:58 AM 21.2 °F 11.7 °F 15.8 °F 80% 30.27 in 4.0 mi North 8.1 mph - 0.00 in Snow Light Snow
1:08 AM 19.4 °F 7.2 °F 15.8 °F 86% 30.18 in 5.0 mi North 11.5 mph - N/A Snow Light Snow
1:13 AM 19.4 °F 7.9 °F 15.8 °F 86% 30.16 in 4.0 mi North 10.4 mph - N/A Snow Light Snow
1:18 AM 19.4 °F 8.6 °F 15.8 °F 86% 30.16 in 4.0 mi North 9.2 mph - N/A Snow Light Snow
1:28 AM 19.4 °F 7.2 °F 15.8 °F 86% 30.15 in 5.0 mi North 11.5 mph - N/A Snow Light Snow
1:33 AM 19.4 °F 9.5 °F 15.8 °F 86% 30.17 in 7.0 mi North 8.1 mph - N/A Snow Light Snow
1:38 AM 19.4 °F 8.6 °F 15.8 °F 86% 30.17 in 6.0 mi North 9.2 mph - N/A Snow Light Snow
1:48 AM 19.4 °F 10.4 °F 15.8 °F 86% 30.16 in 5.0 mi North 6.9 mph - N/A Snow Light Snow
1:58 AM 19.4 °F 9.5 °F 15.6 °F 85% 30.28 in 10.0 mi North 8.1 mph - 0.00 in Snow Light Snow
2:53 AM 19.4 °F 10.4 °F 15.8 °F 86% 30.13 in 8.0 mi North 6.9 mph - N/A Snow Light Snow
2:58 AM 19.0 °F 10.0 °F 15.3 °F 85% 30.25 in 10.0 mi North 6.9 mph - 0.00 in Snow Light Snow
3:03 AM 19.4 °F 11.5 °F 15.8 °F 86% 30.13 in 10.0 mi North 5.8 mph - N/A Snow Light Snow
3:33 AM 17.6 °F 9.3 °F 12.2 °F 79% 30.12 in 10.0 mi North 5.8 mph - N/A Snow Light Snow
3:47 AM 19.4 °F 9.5 °F 14.0 °F 80% 30.14 in 10.0 mi NNW 8.1 mph - N/A   Overcast
3:58 AM 18.9 °F 8.8 °F 14.7 °F 84% 30.26 in 10.0 mi North 8.1 mph - 0.00 in   Overcast
4:10 AM 19.4 °F 9.5 °F 14.0 °F 80% 30.13 in 10.0 mi North 8.1 mph - N/A Snow Light Snow
4:15 AM 19.4 °F 9.5 °F 14.0 °F 80% 30.12 in 10.0 mi North 8.1 mph - N/A Snow Light Snow
4:20 AM 19.4 °F 10.4 °F 14.0 °F 80% 30.12 in 10.0 mi North 6.9 mph - N/A Snow Light Snow
4:25 AM 19.4 °F 10.4 °F 14.0 °F 80% 30.13 in 10.0 mi North 6.9 mph - N/A Snow Light Snow
4:30 AM 19.4 °F 10.4 °F 14.0 °F 80% 30.14 in 10.0 mi North 6.9 mph - N/A Snow Light Snow
4:40 AM 19.4 °F 9.5 °F 14.0 °F 80% 30.13 in 7.0 mi North 8.1 mph - N/A Snow Light Snow
4:55 AM 17.6 °F 9.3 °F 14.0 °F 86% 30.12 in 9.0 mi North 5.8 mph - N/A Snow Light Snow
4:58 AM 18.5 °F 11.7 °F 14.2 °F 83% 30.28 in 10.0 mi North 4.6 mph - 0.00 in Snow Light Snow
5:08 AM 17.6 °F 8.2 °F 14.0 °F 86% 30.11 in 5.0 mi NNE 6.9 mph - N/A Snow Light Snow
5:23 AM 17.6 °F 10.7 °F 14.0 °F 86% 30.11 in 9.0 mi North 4.6 mph - N/A Snow Light Snow
5:28 AM 17.6 °F 10.7 °F 14.0 °F 86% 30.11 in 8.0 mi NW 4.6 mph - N/A Snow Light Snow
5:38 AM 17.6 °F 12.3 °F 14.0 °F 86% 30.11 in 5.0 mi NW 3.5 mph - N/A Snow Light Snow
5:48 AM 17.6 °F 12.3 °F 14.0 °F 86% 30.11 in 6.0 mi NW 3.5 mph - N/A Snow Light Snow
5:58 AM 18.0 °F 11.1 °F 14.5 °F 86% 30.28 in 10.0 mi NW 4.6 mph - 0.01 in Snow Light Snow
5:59 AM 17.6 °F 10.7 °F 14.0 °F 86% 30.13 in 10.0 mi NW 4.6 mph - N/A   Scattered Clouds
6:18 AM 17.6 °F 10.7 °F 14.0 °F 86% 30.12 in 10.0 mi NNW 4.6 mph - N/A Snow Light Snow
6:28 AM 17.6 °F 10.7 °F 14.0 °F 86% 30.13 in 5.0 mi NNW 4.6 mph - N/A Snow Light Snow
6:33 AM 17.6 °F 9.3 °F 14.0 °F 86% 30.13 in 5.0 mi NNW 5.8 mph - N/A Snow Light Snow
6:38 AM 17.6 °F 9.3 °F 14.0 °F 86% 30.13 in 4.0 mi NNW 5.8 mph - N/A Snow Light Snow
6:43 AM 17.6 °F 9.3 °F 14.0 °F 86% 30.13 in 3.0 mi NNW 5.8 mph - N/A Snow Light Snow
6:58 AM 18.1 °F 11.3 °F 14.2 °F 84% 30.30 in 4.0 mi NNW 4.6 mph - 0.00 in Snow Light Snow
7:17 AM 17.6 °F 9.3 °F 14.0 °F 86% 30.13 in 2.5 mi NNW 5.8 mph - N/A Snow Light Snow
7:22 AM 17.6 °F 10.7 °F 14.0 °F 86% 30.14 in 1.8 mi NNW 4.6 mph - N/A Snow Light Snow
7:33 AM 17.6 °F 12.3 °F 14.0 °F 86% 30.14 in 1.8 mi NNW 3.5 mph - N/A Snow Light Snow
7:38 AM 17.6 °F 12.3 °F 14.0 °F 86% 30.14 in 2.5 mi NNW 3.5 mph - N/A Snow Light Snow
7:43 AM 17.6 °F 12.3 °F 14.0 °F 86% 30.14 in 3.0 mi NW 3.5 mph - N/A Snow Light Snow
7:48 AM 17.6 °F 12.3 °F 14.0 °F 86% 30.14 in 4.0 mi NNW 3.5 mph - N/A Snow Light Snow
7:53 AM 17.6 °F - 14.0 °F 86% 30.14 in 6.0 mi North 2.3 mph - N/A Snow Light Snow
8:34 AM 19.4 °F 14.3 °F 14.0 °F 80% 30.15 in 3.0 mi NNW 3.5 mph - N/A Snow Light Snow
8:58 AM 19.9 °F 13.4 °F 14.7 °F 80% 30.32 in 2.5 mi North 4.6 mph - 0.00 in Snow Light Snow
9:58 AM 20.1 °F 15.2 °F 14.7 °F 80% 30.31 in 2.5 mi NE 3.5 mph - 0.00 in Snow Light Snow
10:06 AM 21.2 °F - 15.8 °F 80% 30.14 in 2.5 mi ENE 1.2 mph - N/A Snow Light Snow
10:11 AM 21.2 °F - 14.0 °F 74% 30.14 in 4.0 mi East 2.3 mph - N/A Snow Light Snow
10:18 AM 21.2 °F - 14.0 °F 74% 30.14 in 10.0 mi Variable 1.2 mph - N/A   Mostly Cloudy
10:33 AM 24.8 °F 20.5 °F 14.0 °F 64% 30.14 in 10.0 mi South 3.5 mph - N/A   Mostly Cloudy
10:58 AM 24.3 °F - 13.3 °F 63% 30.28 in 10.0 mi Variable 2.3 mph - 0.00 in   Mostly Cloudy
11:16 AM 24.8 °F 15.3 °F 17.6 °F 74% 30.13 in 9.0 mi South 9.2 mph - N/A   Overcast
11:29 AM 24.8 °F 14.6 °F 19.4 °F 80% 30.13 in 8.0 mi SSW 10.4 mph - N/A Snow Light Snow
11:54 AM 23.0 °F 12.4 °F 19.4 °F 86% 30.13 in 5.0 mi South 10.4 mph - N/A Snow Light Snow
11:58 AM 23.5 °F 14.5 °F 18.7 °F 82% 30.28 in 5.0 mi South 8.1 mph - 0.00 in Snow Light Snow
12:00 PM 23.0 °F 13.1 °F 19.4 °F 86% 30.13 in 3.0 mi South 9.2 mph - N/A Snow Light Snow
12:05 PM 23.0 °F 13.1 °F 19.4 °F 86% 30.13 in 2.0 mi SSE 9.2 mph - N/A Snow Light Snow
12:25 PM 23.0 °F 13.1 °F 19.4 °F 86% 30.12 in 2.0 mi SSE 9.2 mph - N/A Snow Light Snow
12:58 PM 23.4 °F 13.5 °F 18.1 °F 80% 30.26 in 3.0 mi South 9.2 mph - 0.00 in Snow Light Snow
1:03 PM 23.0 °F 13.9 °F 17.6 °F 80% 30.11 in 5.0 mi SSE 8.1 mph - N/A Snow Light Snow
1:58 PM 25.5 °F 14.9 °F 19.8 °F 79% 30.25 in 7.0 mi SSE 11.5 mph - 0.00 in Snow Light Snow
2:39 PM 26.6 °F 18.2 °F 17.6 °F 69% 30.09 in 10.0 mi SE 8.1 mph - N/A   Overcast
2:58 PM 26.6 °F 19.1 °F 15.8 °F 64% 30.24 in 10.0 mi South 6.9 mph - N/A   Mostly Cloudy
3:03 PM 26.6 °F - 15.8 °F 64% 30.09 in 10.0 mi Variable 2.3 mph - N/A   Overcast
3:08 PM 26.6 °F 22.6 °F 15.8 °F 64% 30.09 in 10.0 mi SSW 3.5 mph - N/A   Overcast
3:58 PM 26.8 °F 22.8 °F 17.1 °F 67% 30.23 in 10.0 mi Variable 3.5 mph - N/A   Overcast
4:42 PM 26.6 °F 18.2 °F 17.6 °F 69% 30.08 in 8.0 mi South 8.1 mph - N/A   Mostly Cloudy
4:47 PM 26.6 °F 21.2 °F 17.6 °F 69% 30.08 in 4.0 mi SSW 4.6 mph - N/A Snow Light Snow
4:52 PM 26.6 °F 21.2 °F 19.4 °F 74% 30.08 in 2.0 mi South 4.6 mph - N/A Snow Light Snow
4:57 PM 26.6 °F 21.2 °F 19.4 °F 74% 30.08 in 2.0 mi SSE 4.6 mph - N/A Snow Light Snow
4:58 PM 26.4 °F 19.8 °F 19.0 °F 74% 30.23 in 2.0 mi SSE 5.8 mph - 0.00 in Snow Light Snow
5:03 PM 26.6 °F 19.1 °F 19.4 °F 74% 30.08 in 1.8 mi South 6.9 mph - N/A Snow Light Snow
5:08 PM 26.6 °F 20.0 °F 21.2 °F 80% 30.09 in 2.0 mi SSE 5.8 mph - N/A Snow Light Snow
5:13 PM 26.6 °F 19.1 °F 21.2 °F 80% 30.09 in 2.5 mi SSE 6.9 mph - N/A Snow Light Snow
5:18 PM 26.6 °F 19.1 °F 21.2 °F 80% 30.09 in 3.0 mi South 6.9 mph - N/A Snow Light Snow
5:23 PM 26.6 °F 18.2 °F 21.2 °F 80% 30.09 in 3.0 mi South 8.1 mph - N/A Snow Light Snow
5:28 PM 26.6 °F 19.1 °F 21.2 °F 80% 30.09 in 3.0 mi South 6.9 mph - N/A Snow Light Snow
5:33 PM 26.6 °F 19.1 °F 21.2 °F 80% 30.09 in 4.0 mi South 6.9 mph - N/A Snow Light Snow
5:43 PM 26.6 °F 20.0 °F 21.2 °F 80% 30.10 in 5.0 mi SSE 5.8 mph - N/A Snow Light Snow
5:48 PM 24.8 °F 16.9 °F 21.2 °F 86% 30.10 in 7.0 mi South 6.9 mph - N/A Snow Light Snow
5:58 PM 25.9 °F 18.2 °F 21.0 °F 82% 30.25 in 8.0 mi SSE 6.9 mph - 0.00 in Snow Light Snow
6:17 PM 26.6 °F 19.1 °F 21.2 °F 80% 30.10 in 9.0 mi SSE 6.9 mph - N/A   Overcast
6:34 PM 26.6 °F 19.1 °F 21.2 °F 80% 30.11 in 9.0 mi SSE 6.9 mph - N/A Snow Light Snow
6:43 PM 26.6 °F 18.2 °F 21.2 °F 80% 30.11 in 10.0 mi South 8.1 mph - N/A   Overcast
6:58 PM 25.7 °F 17.1 °F 20.3 °F 80% 30.29 in 10.0 mi SSE 8.1 mph - 0.00 in   Overcast
7:55 PM 24.8 °F 17.9 °F 19.4 °F 80% 30.14 in 10.0 mi SSE 5.8 mph - N/A   Overcast
8:11 PM 23.0 °F 17.0 °F 19.4 °F 86% 30.14 in 10.0 mi SSE 4.6 mph - N/A   Scattered Clouds
8:58 PM 22.8 °F 15.5 °F 19.2 °F 86% 30.34 in 10.0 mi South 5.8 mph - N/A   Clear
9:58 PM 21.4 °F 13.8 °F 17.8 °F 86% 30.35 in 10.0 mi NNW 5.8 mph - N/A   Clear
10:58 PM 18.3 °F 13.1 °F 15.8 °F 90% 30.34 in 10.0 mi NW 3.5 mph - N/A   Clear
11:58 PM 16.9 °F 8.5 °F 14.0 °F 88% 30.34 in 10.0 mi NNW 5.8 mph - N/A   Clear